Location: Chatou
(48.8898°N, 2.1586°E)
Time: 05:32:49
(UTC+00:00)

Cosmos 2360 Rocket - Pass Details

Date: 03 February 2023
Orbit: 832 x 846 km, 71.0° (Epoch: 21 March)

Event Time Altitude Azimuth Distance (km) Brightness Sun altitude
Rises 18:03:25 0° 184° (S) 3,372 5.5 -12.0°
Reaches altitude 10° 18:05:57 10° 177° (S) 2,445 4.7 -12.4°
Maximum altitude 18:11:11 42° 108° (ESE) 1,179 2.6 -13.3°
Enters shadow 18:16:11 11° 40° (NE) 2,366 4.1 -14.1°
